Time,TemperatureF,DewpointF,PressureIn,WindDirection,WindDirectionDegrees,WindSpeedMPH,WindSpeedGustMPH,Humidity,HourlyPrecipIn,Conditions,Clouds,dailyrainin,SoftwareType,DateUTC
2013-01-07 00:02:00,36.0,33.0,-100.00,ENE,70,20.0,-999.0,88,0.00,,,-99.99,,2013-01-07 09:02:00,
2013-01-07 00:12:00,36.0,33.0,-100.00,ENE,70,20.0,-999.0,88,0.00,,,-99.99,,2013-01-07 09:12:00,
2013-01-07 00:22:00,36.0,33.0,-100.00,ENE,70,20.0,-999.0,88,0.00,,,-99.99,,2013-01-07 09:22:00,
2013-01-07 00:30:00,35.0,32.0,-100.00,East,96,11.0,-999.0,89,0.03,,,-99.99,,2013-01-07 09:30:00,
2013-01-07 00:52:00,35.0,32.0,-100.00,East,96,11.0,-999.0,89,0.03,,,-99.99,,2013-01-07 09:52:00,
2013-01-07 01:02:00,35.0,32.0,-100.00,East,96,11.0,-999.0,89,0.03,,,-99.99,,2013-01-07 10:02:00,
2013-01-07 01:12:00,35.0,32.0,-100.00,East,96,11.0,-999.0,89,0.03,,,-99.99,,2013-01-07 10:12:00,
2013-01-07 01:22:00,35.0,32.0,-100.00,East,96,11.0,-999.0,89,0.03,,,-99.99,,2013-01-07 10:22:00,
2013-01-07 01:30:00,33.0,32.0,-100.00,NE,45,17.0,-999.0,95,0.07,,,-99.99,,2013-01-07 10:30:00,
2013-01-07 01:52:00,33.0,32.0,-100.00,NE,45,17.0,-999.0,95,0.07,,,-99.99,,2013-01-07 10:52:00,
2013-01-07 02:02:00,33.0,32.0,-100.00,NE,45,17.0,-999.0,95,0.07,,,-99.99,,2013-01-07 11:02:00,
2013-01-07 02:12:00,33.0,32.0,-100.00,NE,45,17.0,-999.0,95,0.07,,,-99.99,,2013-01-07 11:12:00,
2013-01-07 02:22:00,33.0,32.0,-100.00,NE,45,17.0,-999.0,95,0.07,,,-99.99,,2013-01-07 11:22:00,
2013-01-07 02:30:00,36.0,34.0,-100.00,NE,50,19.0,-999.0,90,0.00,,,-99.99,,2013-01-07 11:30:00,
2013-01-07 02:53:00,36.0,34.0,-100.00,NE,50,19.0,-999.0,90,0.00,,,-99.99,,2013-01-07 11:53:00,
2013-01-07 03:02:00,36.0,34.0,-100.00,NE,50,19.0,-999.0,90,0.00,,,-99.99,,2013-01-07 12:02:00,
2013-01-07 03:12:00,36.0,34.0,-100.00,NE,50,19.0,-999.0,90,0.00,,,-99.99,,2013-01-07 12:12:00,
2013-01-07 03:22:00,36.0,34.0,-100.00,NE,50,19.0,-999.0,90,0.00,,,-99.99,,2013-01-07 12:22:00,
2013-01-07 03:30:00,33.0,32.0,-100.00,NE,39,18.0,-999.0,96,0.04,,,-99.99,,2013-01-07 12:30:00,
2013-01-07 03:53:00,33.0,32.0,-100.00,NE,39,18.0,-999.0,96,0.04,,,-99.99,,2013-01-07 12:53:00,
2013-01-07 04:02:00,33.0,32.0,-100.00,NE,39,18.0,-999.0,96,0.04,,,-99.99,,2013-01-07 13:02:00,
2013-01-07 04:12:00,33.0,32.0,-100.00,NE,39,18.0,-999.0,96,0.04,,,-99.99,,2013-01-07 13:12:00,
2013-01-07 04:22:00,33.0,32.0,-100.00,NE,39,18.0,-999.0,96,0.04,,,-99.99,,2013-01-07 13:22:00,
2013-01-07 04:30:00,35.0,33.0,-100.00,NE,48,27.0,-999.0,95,0.01,,,-99.99,,2013-01-07 13:30:00,
2013-01-07 04:53:00,35.0,33.0,-100.00,NE,48,27.0,-999.0,95,0.01,,,-99.99,,2013-01-07 13:53:00,
2013-01-07 05:03:00,35.0,33.0,-100.00,NE,48,27.0,-999.0,95,0.01,,,-99.99,,2013-01-07 14:03:00,
2013-01-07 05:12:00,35.0,33.0,-100.00,NE,48,27.0,-999.0,95,0.01,,,-99.99,,2013-01-07 14:12:00,
2013-01-07 05:22:00,35.0,33.0,-100.00,NE,48,27.0,-999.0,95,0.01,,,-99.99,,2013-01-07 14:22:00,
2013-01-07 05:30:00,34.0,34.0,-100.00,NE,44,27.0,-999.0,97,0.00,,,-99.99,,2013-01-07 14:30:00,
2013-01-07 05:53:00,34.0,34.0,-100.00,NE,44,27.0,-999.0,97,0.00,,,-99.99,,2013-01-07 14:53:00,
2013-01-07 06:03:00,34.0,34.0,-100.00,NE,44,27.0,-999.0,97,0.00,,,-99.99,,2013-01-07 15:03:00,
2013-01-07 06:12:00,34.0,34.0,-100.00,NE,44,27.0,-999.0,97,0.00,,,-99.99,,2013-01-07 15:12:00,
2013-01-07 06:22:00,34.0,34.0,-100.00,NE,44,27.0,-999.0,97,0.00,,,-99.99,,2013-01-07 15:22:00,
2013-01-07 06:30:00,34.0,33.0,-100.00,NE,50,25.0,-999.0,98,0.01,,,-99.99,,2013-01-07 15:30:00,
2013-01-07 06:53:00,34.0,33.0,-100.00,NE,50,25.0,-999.0,98,0.01,,,-99.99,,2013-01-07 15:53:00,
2013-01-07 07:02:00,34.0,33.0,-100.00,NE,50,25.0,-999.0,98,0.01,,,-99.99,,2013-01-07 16:02:00,
2013-01-07 07:12:00,34.0,33.0,-100.00,NE,50,25.0,-999.0,98,0.01,,,-99.99,,2013-01-07 16:12:00,
2013-01-07 07:22:00,34.0,33.0,-100.00,NE,50,25.0,-999.0,98,0.01,,,-99.99,,2013-01-07 16:22:00,
2013-01-07 07:30:00,35.0,34.0,-100.00,NE,43,22.0,-999.0,98,0.00,,,-99.99,,2013-01-07 16:30:00,
2013-01-07 07:53:00,35.0,34.0,-100.00,NE,43,22.0,-999.0,98,0.00,,,-99.99,,2013-01-07 16:53:00,
2013-01-07 08:02:00,35.0,34.0,-100.00,NE,43,22.0,-999.0,98,0.00,,,-99.99,,2013-01-07 17:02:00,
2013-01-07 08:12:00,35.0,34.0,-100.00,NE,43,22.0,-999.0,98,0.00,,,-99.99,,2013-01-07 17:12:00,
2013-01-07 08:22:00,35.0,34.0,-100.00,NE,43,22.0,-999.0,98,0.00,,,-99.99,,2013-01-07 17:22:00,
2013-01-07 08:30:00,35.0,34.0,-100.00,NE,55,21.0,-999.0,97,0.00,,,-99.99,,2013-01-07 17:30:00,
2013-01-07 08:53:00,35.0,34.0,-100.00,NE,55,21.0,-999.0,97,0.00,,,-99.99,,2013-01-07 17:53:00,
2013-01-07 09:02:00,35.0,34.0,-100.00,NE,55,21.0,-999.0,97,0.00,,,-99.99,,2013-01-07 18:02:00,
2013-01-07 09:12:00,35.0,34.0,-100.00,NE,55,21.0,-999.0,97,0.00,,,-99.99,,2013-01-07 18:12:00,
2013-01-07 09:23:00,35.0,34.0,-100.00,NE,55,21.0,-999.0,97,0.00,,,-99.99,,2013-01-07 18:23:00,
2013-01-07 09:30:00,35.0,34.0,-100.00,NE,48,17.0,-999.0,96,0.00,,,-99.99,,2013-01-07 18:30:00,
2013-01-07 09:53:00,35.0,34.0,-100.00,NE,48,17.0,-999.0,96,0.00,,,-99.99,,2013-01-07 18:53:00,
2013-01-07 10:03:00,35.0,34.0,-100.00,NE,48,17.0,-999.0,96,0.00,,,-99.99,,2013-01-07 19:03:00,
2013-01-07 10:12:00,35.0,34.0,-100.00,NE,48,17.0,-999.0,96,0.00,,,-99.99,,2013-01-07 19:12:00,
2013-01-07 10:22:00,35.0,34.0,-100.00,NE,48,17.0,-999.0,96,0.00,,,-99.99,,2013-01-07 19:22:00,
2013-01-07 10:30:00,36.0,35.0,-100.00,ENE,69,11.0,-999.0,95,0.00,,,-99.99,,2013-01-07 19:30:00,
2013-01-07 10:53:00,36.0,35.0,-100.00,ENE,69,11.0,-999.0,95,0.00,,,-99.99,,2013-01-07 19:53:00,
2013-01-07 11:02:00,36.0,35.0,-100.00,ENE,69,11.0,-999.0,95,0.00,,,-99.99,,2013-01-07 20:02:00,
2013-01-07 11:12:00,36.0,35.0,-100.00,ENE,69,11.0,-999.0,95,0.00,,,-99.99,,2013-01-07 20:12:00,
2013-01-07 11:22:00,36.0,35.0,-100.00,ENE,69,11.0,-999.0,95,0.00,,,-99.99,,2013-01-07 20:22:00,
2013-01-07 11:30:00,37.0,34.0,-100.00,NE,43,14.0,-999.0,90,0.00,,,-99.99,,2013-01-07 20:30:00,
2013-01-07 11:53:00,37.0,34.0,-100.00,NE,43,14.0,-999.0,90,0.00,,,-99.99,,2013-01-07 20:53:00,
2013-01-07 12:02:00,37.0,34.0,-100.00,NE,43,14.0,-999.0,90,0.00,,,-99.99,,2013-01-07 21:02:00,
2013-01-07 12:12:00,37.0,34.0,-100.00,NE,43,14.0,-999.0,90,0.00,,,-99.99,,2013-01-07 21:12:00,
2013-01-07 12:22:00,37.0,34.0,-100.00,NE,43,14.0,-999.0,90,0.00,,,-99.99,,2013-01-07 21:22:00,
2013-01-07 12:30:00,37.0,33.0,-100.00,ENE,57,14.0,-999.0,86,0.00,,,-99.99,,2013-01-07 21:30:00,
2013-01-07 12:53:00,37.0,33.0,-100.00,ENE,57,14.0,-999.0,86,0.00,,,-99.99,,2013-01-07 21:53:00,
2013-01-07 13:02:00,37.0,33.0,-100.00,ENE,57,14.0,-999.0,86,0.00,,,-99.99,,2013-01-07 22:02:00,
2013-01-07 13:12:00,37.0,33.0,-100.00,ENE,57,14.0,-999.0,86,0.00,,,-99.99,,2013-01-07 22:12:00,
2013-01-07 13:22:00,37.0,33.0,-100.00,ENE,57,14.0,-999.0,86,0.00,,,-99.99,,2013-01-07 22:22:00,
2013-01-07 13:30:00,37.0,32.0,-100.00,ENE,66,15.0,-999.0,81,0.00,,,-99.99,,2013-01-07 22:30:00,
2013-01-07 13:53:00,37.0,32.0,-100.00,ENE,66,15.0,-999.0,81,0.00,,,-99.99,,2013-01-07 22:53:00,
2013-01-07 14:02:00,37.0,32.0,-100.00,ENE,66,15.0,-999.0,81,0.00,,,-99.99,,2013-01-07 23:02:00,
2013-01-07 14:12:00,37.0,32.0,-100.00,ENE,66,15.0,-999.0,81,0.00,,,-99.99,,2013-01-07 23:12:00,
2013-01-07 14:22:00,37.0,32.0,-100.00,ENE,66,15.0,-999.0,81,0.00,,,-99.99,,2013-01-07 23:22:00,
2013-01-07 14:30:00,37.0,32.0,-100.00,East,93,2.0,-999.0,84,0.00,,,-99.99,,2013-01-07 23:30:00,
2013-01-07 14:53:00,37.0,32.0,-100.00,East,93,2.0,-999.0,84,0.00,,,-99.99,,2013-01-07 23:53:00,
2013-01-07 15:02:00,37.0,32.0,-100.00,East,93,2.0,-999.0,84,0.00,,,-99.99,,2013-01-08 00:02:00,
2013-01-07 15:12:00,37.0,32.0,-100.00,East,93,2.0,-999.0,84,0.00,,,-99.99,,2013-01-08 00:12:00,
2013-01-07 15:22:00,37.0,32.0,-100.00,East,93,2.0,-999.0,84,0.00,,,-99.99,,2013-01-08 00:22:00,
2013-01-07 15:30:00,37.0,32.0,-100.00,NE,38,6.0,-999.0,83,0.00,,,-99.99,,2013-01-08 00:30:00,
2013-01-07 15:52:00,37.0,32.0,-100.00,NE,38,6.0,-999.0,83,0.00,,,-99.99,,2013-01-08 00:52:00,
2013-01-07 16:02:00,37.0,32.0,-100.00,NE,38,6.0,-999.0,83,0.00,,,-99.99,,2013-01-08 01:02:00,
2013-01-07 16:12:00,37.0,32.0,-100.00,NE,38,6.0,-999.0,83,0.00,,,-99.99,,2013-01-08 01:12:00,
2013-01-07 16:22:00,37.0,32.0,-100.00,NE,38,6.0,-999.0,83,0.00,,,-99.99,,2013-01-08 01:22:00,
2013-01-07 16:30:00,36.0,32.0,-100.00,North,356,4.0,-999.0,85,0.00,,,-99.99,,2013-01-08 01:30:00,
2013-01-07 16:52:00,36.0,32.0,-100.00,North,356,4.0,-999.0,85,0.00,,,-99.99,,2013-01-08 01:52:00,
2013-01-07 17:02:00,36.0,32.0,-100.00,North,356,4.0,-999.0,85,0.00,,,-99.99,,2013-01-08 02:02:00,
2013-01-07 17:12:00,36.0,32.0,-100.00,North,356,4.0,-999.0,85,0.00,,,-99.99,,2013-01-08 02:12:00,
2013-01-07 17:22:00,36.0,32.0,-100.00,North,356,4.0,-999.0,85,0.00,,,-99.99,,2013-01-08 02:22:00,
2013-01-07 17:30:00,36.0,32.0,-100.00,WNW,284,4.0,-999.0,86,0.00,,,-99.99,,2013-01-08 02:30:00,
2013-01-07 17:53:00,36.0,32.0,-100.00,WNW,284,4.0,-999.0,86,0.00,,,-99.99,,2013-01-08 02:53:00,
2013-01-07 18:03:00,36.0,32.0,-100.00,WNW,284,4.0,-999.0,86,0.00,,,-99.99,,2013-01-08 03:03:00,
2013-01-07 18:12:00,36.0,32.0,-100.00,WNW,284,4.0,-999.0,86,0.00,,,-99.99,,2013-01-08 03:12:00,
2013-01-07 18:22:00,36.0,32.0,-100.00,WNW,284,4.0,-999.0,86,0.00,,,-99.99,,2013-01-08 03:22:00,
2013-01-07 18:30:00,36.0,33.0,-100.00,SW,226,7.0,-999.0,89,0.00,,,-99.99,,2013-01-08 03:30:00,
2013-01-07 18:53:00,36.0,33.0,-100.00,SW,226,7.0,-999.0,89,0.00,,,-99.99,,2013-01-08 03:53:00,
2013-01-07 19:02:00,36.0,33.0,-100.00,SW,226,7.0,-999.0,89,0.00,,,-99.99,,2013-01-08 04:02:00,
2013-01-07 19:12:00,36.0,33.0,-100.00,SW,226,7.0,-999.0,89,0.00,,,-99.99,,2013-01-08 04:12:00,
2013-01-07 19:22:00,36.0,33.0,-100.00,SW,226,7.0,-999.0,89,0.00,,,-99.99,,2013-01-08 04:22:00,
2013-01-07 19:30:00,36.0,32.0,-100.00,SSW,204,2.0,-999.0,87,0.00,,,-99.99,,2013-01-08 04:30:00,
2013-01-07 19:52:00,36.0,32.0,-100.00,SSW,204,2.0,-999.0,87,0.00,,,-99.99,,2013-01-08 04:52:00,
2013-01-07 20:03:00,36.0,32.0,-100.00,SSW,204,2.0,-999.0,87,0.00,,,-99.99,,2013-01-08 05:03:00,
2013-01-07 20:12:00,36.0,32.0,-100.00,SSW,204,2.0,-999.0,87,0.00,,,-99.99,,2013-01-08 05:12:00,
2013-01-07 20:22:00,36.0,32.0,-100.00,SSW,204,2.0,-999.0,87,0.00,,,-99.99,,2013-01-08 05:22:00,
2013-01-07 20:30:00,35.0,32.0,-100.00,SW,224,3.0,-999.0,89,0.00,,,-99.99,,2013-01-08 05:30:00,
2013-01-07 20:53:00,35.0,32.0,-100.00,SW,224,3.0,-999.0,89,0.00,,,-99.99,,2013-01-08 05:53:00,
2013-01-07 21:02:00,35.0,32.0,-100.00,SW,224,3.0,-999.0,89,0.00,,,-99.99,,2013-01-08 06:02:00,
2013-01-07 21:12:00,35.0,32.0,-100.00,SW,224,3.0,-999.0,89,0.00,,,-99.99,,2013-01-08 06:12:00,
2013-01-07 21:22:00,35.0,32.0,-100.00,SW,224,3.0,-999.0,89,0.00,,,-99.99,,2013-01-08 06:22:00,
2013-01-07 21:30:00,35.0,31.0,-100.00,SW,217,3.0,-999.0,86,0.00,,,-99.99,,2013-01-08 06:30:00,
2013-01-07 21:53:00,35.0,31.0,-100.00,SW,217,3.0,-999.0,86,0.00,,,-99.99,,2013-01-08 06:53:00,
2013-01-07 22:02:00,35.0,31.0,-100.00,SW,217,3.0,-999.0,86,0.00,,,-99.99,,2013-01-08 07:02:00,
2013-01-07 22:11:00,35.0,31.0,-100.00,SW,217,3.0,-999.0,86,0.00,,,-99.99,,2013-01-08 07:11:00,
2013-01-07 22:22:00,35.0,31.0,-100.00,SW,217,3.0,-999.0,86,0.00,,,-99.99,,2013-01-08 07:22:00,
2013-01-07 22:30:00,34.0,31.0,-100.00,SSW,198,3.0,-999.0,87,0.00,,,-99.99,,2013-01-08 07:30:00,
2013-01-07 22:52:00,34.0,31.0,-100.00,SSW,198,3.0,-999.0,87,0.00,,,-99.99,,2013-01-08 07:52:00,
2013-01-07 23:02:00,34.0,31.0,-100.00,SSW,198,3.0,-999.0,87,0.00,,,-99.99,,2013-01-08 08:02:00,
2013-01-07 23:12:00,34.0,31.0,-100.00,SSW,198,3.0,-999.0,87,0.00,,,-99.99,,2013-01-08 08:12:00,
2013-01-07 23:22:00,34.0,31.0,-100.00,SSW,198,3.0,-999.0,87,0.00,,,-99.99,,2013-01-08 08:22:00,
2013-01-07 23:30:00,34.0,30.0,-100.00,SW,227,4.0,-999.0,87,0.00,,,-99.99,,2013-01-08 08:30:00,
2013-01-07 23:53:00,34.0,30.0,-100.00,SW,227,4.0,-999.0,87,0.00,,,-99.99,,2013-01-08 08:53:00,